CW9203 Weather Reports


Display with metric or nautical units.
time (UTC)temp
F
wind
direction
speed
MPH
gust
MPH
rain 1hr
in
rain 24hr
in
rain mn
in
humidity
%
barometer
mb
20260502152305 52 141 1.0 3.0 0.00 0.00 0.00 4 1035.6
20260502150804 52 139 1.0 3.0 0.00 0.00 0.00 4 1035.7
20260502130303 53 130 1.0 2.0 0.00 0.00 0.00 4 1035.8
20260502123304 52 131 0.0 1.0 0.00 0.00 0.00 4 1035.9
20260502122803 52 130 0.0 0.0 0.00 0.00 0.00 4 1035.9
20260502122306 53 131 0.0 1.0 0.00 0.00 0.00 4 1035.8
20260502120304 53 124 0.0 0.0 0.00 0.00 0.00 4 1035.7
20260502115306 53 124 1.0 2.0 0.00 0.00 0.00 4 1035.6
20260502114804 53 89 1.0 1.0 0.00 0.00 0.00 4 1035.5
20260502110304 55 89 1.0 1.0 0.00 0.00 0.00 4 1035.4
20260502105306 55 89 0.0 0.0 0.00 0.00 0.00 4 1035.4
20260502104804 55 89 0.0 0.0 0.00 0.00 0.00 4 1035.4
20260502104303 55 89 0.0 1.0 0.00 0.00 0.00 4 1035.4
20260502101804 55 74 1.0 2.0 0.00 0.00 0.00 4 1035.2
20260502100304 55 45 0.0 1.0 0.00 0.00 0.00 4 1035.3
20260502071303 59 51 1.0 2.0 0.00 0.00 0.00 4 1034.2
20260502065804 59 61 1.0 2.0 0.00 0.00 0.00 4 1034.2
20260502065306 59 61 1.0 1.0 0.00 0.00 0.00 5 1034.2
20260502064804 59 47 0.0 1.0 0.00 0.00 0.00 7 1034.1
20260502063804 59 41 0.0 1.0 0.00 0.00 0.00 11 1034.1
20260502062804 60 27 0.0 2.0 0.00 0.00 0.00 15 1033.9
20260502060804 60 34 2.0 3.0 0.00 0.00 0.00 21 1033.8
20260502060304 60 40 2.0 3.0 0.00 0.00 0.00 23 1033.7
20260502055804 60 79 2.0 3.0 0.00 0.00 0.00 26 1033.6
20260502054805 60 40 2.0 5.0 0.00 0.00 0.00 32 1033.5
20260502054303 61 53 2.0 5.0 0.00 0.00 0.00 36 1033.5
20260502053804 61 47 3.0 6.0 0.00 0.00 0.00 38 1033.5
20260502053304 61 42 3.0 7.0 0.00 0.00 0.00 40 1033.4
20260502050304 62 66 3.0 7.0 0.00 0.00 0.00 41 1033.3
20260502045306 62 34 2.0 5.0 0.00 0.00 0.00 42 1033.3
20260502044804 62 47 2.0 6.0 0.00 0.00 0.00 44 1033.4
20260502044303 62 50 2.0 6.0 0.00 0.00 0.00 48 1033.4
20260502043804 62 57 3.0 7.0 0.00 0.00 0.00 50 1033.4
20260502040303 63 50 5.0 9.0 0.00 0.00 0.00 60 1033.4
20260502035306 63 61 5.0 9.0 0.00 0.00 0.00 62 1033.4
20260502034804 63 18 3.0 7.0 0.00 0.00 0.00 61 1033.5
20260502034303 64 50 3.0 7.0 0.00 0.00 0.00 61 1033.5
20260502032804 64 12 2.0 7.0 0.00 0.00 0.00 61 1033.5
20260502031303 65 47 2.0 7.0 0.00 0.00 0.00 62 1033.6
20260502030304 66 9 2.0 8.0 0.00 0.00 0.00 63 1033.7
20260502025306 65 5 1.0 9.0 0.00 0.00 0.00 63 1033.8
20260502024304 65 44 4.0 12.0 0.00 0.00 0.00 62 1033.8
20260502023803 65 25 3.0 7.0 0.00 0.00 0.00 62 1033.9
20260502023303 64 8 1.0 5.0 0.00 0.00 0.00 62 1033.9
20260502022804 64 339 2.0 6.0 0.00 0.00 0.00 62 1034.0
20260502021804 65 58 4.0 7.0 0.00 0.00 0.00 63 1033.9
20260502020303 66 33 5.0 10.0 0.00 0.00 0.00 64 1034.1
20260502015305 66 31 4.0 7.0 0.00 0.00 0.00 63 1034.3
20260502014303 66 273 2.0 3.0 0.00 0.00 0.00 61 1034.4
20260502013804 65 319 4.0 8.0 0.00 0.00 0.00 60 1034.4
20260502012804 63 125 2.0 3.0 0.00 0.00 0.00 52 1034.5
20260502010804 62 132 1.0 6.0 0.00 0.00 0.00 48 1034.7
20260502005804 62 117 3.0 5.0 0.00 0.00 0.00 48 1034.9
20260502005306 62 121 1.0 3.0 0.00 0.00 0.00 45 1035.0
20260502004804 62 230 1.0 3.0 0.00 0.00 0.00 47 1035.1
20260502002804 63 143 1.0 3.0 0.00 0.00 0.00 39 1035.3
20260502002305 62 135 2.0 5.0 0.00 0.00 0.00 32 1035.5
20260502001803 62 202 1.0 8.0 0.00 0.00 0.00 36 1035.6
20260502001303 62 119 2.0 7.0 0.00 0.00 0.00 29 1035.7
20260502000804 61 186 2.0 5.0 0.00 0.00 0.00 31 1035.8
20260502000304 61 128 3.0 6.0 0.00 0.00 0.00 30 1035.9
20260501235803 61 109 2.0 5.0 0.00 0.00 0.00 35 1035.9
20260501234803 61 137 2.0 6.0 0.00 0.00 0.00 35 1036.1
20260501233804 61 196 1.0 3.0 0.00 0.00 0.00 36 1036.2
20260501232804 61 187 2.0 3.0 0.00 0.00 0.00 29 1036.3
20260501231804 60 143 2.0 3.0 0.00 0.00 0.00 19 1036.4
20260501231304 60 174 1.0 3.0 0.00 0.00 0.00 10 1036.4
20260501230304 59 96 2.0 5.0 0.00 0.00 0.00 10 1036.5
20260501225306 58 130 3.0 7.0 0.00 0.00 0.00 5 1036.5
20260501224304 58 161 1.0 3.0 0.00 0.00 0.00 4 1036.6
20260501223804 58 157 2.0 5.0 0.00 0.00 0.00 4 1036.6
20260501221804 57 110 1.0 5.0 0.00 0.00 0.00 4 1036.8
20260501220804 57 174 1.0 5.0 0.00 0.00 0.00 4 1036.7
20260501215804 57 142 2.0 3.0 0.00 0.00 0.00 4 1036.7
20260501214304 57 97 2.0 6.0 0.00 0.00 0.00 4 1036.7
20260501213304 57 130 2.0 6.0 0.00 0.00 0.00 4 1036.8
20260501211304 55 136 3.0 7.0 0.00 0.00 0.00 4 1036.8
20260501205306 54 142 1.0 3.0 0.00 0.00 0.00 4 1036.8
20260501204803 54 134 2.0 5.0 0.00 0.00 0.00 4 1036.9
20260501202804 53 131 2.0 3.0 0.00 0.00 0.00 4 1036.7
20260501201803 53 145 2.0 3.0 0.00 0.00 0.00 4 1036.7
20260501200304 52 126 2.0 3.0 0.00 0.00 0.00 4 1036.5
20260501195804 51 123 2.0 5.0 0.00 0.00 0.00 4 1036.5
20260501193804 50 127 2.0 3.0 0.00 0.00 0.00 4 1036.3
20260501193304 50 126 0.0 3.0 0.00 0.00 0.00 4 1036.3
20260501192804 50 105 1.0 3.0 0.00 0.00 0.00 4 1036.3
20260501192306 50 145 2.0 5.0 0.00 0.00 0.00 4 1036.3
20260501191803 50 144 2.0 5.0 0.00 0.00 0.00 4 1036.3
20260501191304 50 135 2.0 6.0 0.00 0.00 0.00 4 1036.3
20260501185804 50 137 3.0 6.0 0.00 0.00 0.00 4 1036.3
20260501185306 50 131 2.0 5.0 0.00 0.00 0.00 4 1036.3
20260501184804 50 135 2.0 5.0 0.00 0.00 0.00 4 1036.3
20260501183804 50 153 2.0 5.0 0.00 0.00 0.00 4 1036.2
20260501182804 50 136 2.0 3.0 0.00 0.00 0.00 4 1036.1
20260501182306 49 168 1.0 3.0 0.00 0.00 0.00 4 1036.1
20260501181304 49 164 0.0 2.0 0.00 0.00 0.00 4 1036.1
20260501180804 50 133 0.0 1.0 0.00 0.00 0.00 4 1036.2
20260501175306 50 157 1.0 2.0 0.00 0.00 0.00 4 1036.2
20260501174803 50 143 1.0 2.0 0.00 0.00 0.00 4 1036.2
20260501172306 50 172 0.0 2.0 0.00 0.00 0.00 4 1036.1
20260501170804 50 147 0.0 1.0 0.00 0.00 0.00 4 1036.2
20260501170304 51 133 0.0 1.0 0.00 0.00 0.00 4 1036.2
20260501163803 51 126 1.0 3.0 0.00 0.00 0.00 4 1036.1
20260501162305 50 127 1.0 2.0 0.00 0.00 0.00 4 1036.1
20260501160804 51 168 1.0 3.0 0.00 0.00 0.00 4 1036.1
20260501154804 51 156 0.0 1.0 0.00 0.00 0.00 4 1036.1